BEIDOU-2 IGSO-6

Last updated on Thu Aug 13 2026 00:03:00 GMT+0000 (Coordinated Universal Time)

1 41434U 16021A 26224.44834737 -.00000141 00000+0 00000+0 0 9997 2 41434 60.3112 37.4813 0060123 228.1051 312.0641 1.00287933 38043
UTC large
Height (km)
Speed (km/s)
/
Latitude / Longitude
Inclination (degrees)
Orbital Period (minutes)
Azimuth
Elevation
Range (km)
Doppler Factor

Next 0 passes for location: London (51.5072 / 0.1276)

No passes found over London.
BEIDOU-2 IGSO-6